Wind_Speed
12 12 12 12 12 12 13 13 13 13 13 14 14 14 14 14 14 14 14 13 14 13 13 13 14 14 14 14 15 15 15 15 16 16 17 17 17 17
15 15 15 15 15 16 16 16 17 17 17 17 17 17 17 17 17 17 17 17 17 17 17 17 17 17 17 17 17 17 17 17 17 17 18 18 19 19
18 18 19 19 19 19 19 20 20 21 21 21 21 21 21 21 21 21 21 21 21 21 21 21 21 20 20 20 20 21 21 21 20 20 20 21 21 21
20 20 21 21 22 22 23 23 24 24 24 24 24 24 24 24 24 24 24 24 25 25 25 25 24 24 24 24 24 24 24 24 24 24 24 24 24 24
21 22 22 23 24 25 26 26 27 28 28 27 27 28 28 28 28 28 28 28 28 28 28 28 28 28 28 28 28 28 28 28 28 28 28 28 28 27
24 24 25 26 27 28 29 29 30 30 31 31 31 31 31 31 31 31 30 31 31 31 31 32 32 32 31 32 32 32 32 32 31 31 31 31 31 31
25 26 27 28 30 31 31 32 33 33 34 34 34 34 34 34 34 34 34 34 34 34 34 34 34 35 34 34 35 35 35 35 35 34 34 34 34 34
27 29 29 30 32 34 35 35 35 35 36 37 37 37 37 38 38 38 37 36 36 37 38 37 37 36 37 37 37 37 38 38 38 37 37 37 37 36
29 30 31 32 32 34 35 36 36 36 37 38 39 39 40 40 41 41 41 40 39 39 40 40 40 40 40 39 39 40 40 40 40 40 40 40 40 40
29 30 31 32 32 34 35 36 37 38 39 39 39 41 42 42 43 44 45 44 43 43 44 44 43 43 43 43 43 42 43 43 43 43 43 43 43 43
32 32 33 34 35 36 37 38 38 39 40 41 41 42 42 43 44 45 46 47 46 45 46 46 46 45 45 45 45 45 45 45 45 45 45 45 46 46
35 36 36 37 38 39 39 41 41 42 43 43 44 44 45 45 45 46 47 47 48 47 47 49 48 48 47 47 48 48 48 47 47 47 47 47 48 48
38 38 39 40 41 41 42 43 43 44 45 46 46 47 47 47 47 47 48 48 48 48 48 49 48 48 49 47 47 48 49 49 49 48 48 48 49 49
39 40 40 41 42 43 44 44 45 46 47 47 48 48 48 49 49 49 49 50 51 51 50 50 50 50 50 49 48 48 49 50 50 50 49 50 50 50
40 40 42 43 45 46 46 47 48 48 49 49 49 50 51 51 51 51 51 51 51 51 51 51 51 51 51 51 50 49 49 50 51 51 51 51 52 52
41 43 44 45 46 47 48 48 49 49 50 50 50 51 52 52 53 53 52 52 52 52 51 51 51 51 51 51 51 50 51 51 50 51 51 51 51 51
44 46 47 48 49 49 49 49 49 49 50 51 51 52 52 53 53 53 52 52 52 51 51 51 51 51 51 51 50 51 51 50 50 50 50 50 50 51
46 48 49 50 51 51 51 51 51 52 52 53 52 52 52 52 52 52 52 51 51 51 50 50 50 49 49 49 50 50 49 49 48 48 49 49 48 49
48 49 50 51 51 51 51 52 52 52 52 52 51 51 50 50 50 49 48 49 49 50 50 50 50 50 49 48 48 49 48 47 47 47 47 47 47 48
49 50 51 51 51 51 51 51 51 51 50 50 49 49 48 48 48 48 48 48 49 49 48 49 49 49 49 48 46 46 47 47 46 46 46 46 46 46
50 50 51 50 50 50 50 50 49 49 48 48 48 48 48 47 47 47 47 47 47 46 46 46 46 47 47 46 45 44 44 44 45 44 44 44 44 45
49 49 49 49 49 49 48 48 47 47 47 46 46 46 45 45 45 45 45 44 43 43 43 43 42 42 42 42 42 42 41 42 42 43 42 42 42 41
46 46 46 45 44 43 43 43 43 43 42 42 42 41 41 41 41 40 40 39 38 38 38 38 37 38 38 39 38 38 38 38 38 38 38 39 39 38
Wind_Direction
260 266 272 278 283 287 291 294 297 299 301 303 304 303 303 302 302 301 300 300 298 297 297 296 294 292 290 288 284 282 281 281 278 276 275 275 275 276
263 267 271 275 280 284 287 290 292 294 295 297 298 298 297 296 295 296 295 294 293 292 291 290 289 287 286 285 283 282 281 279 278 278 278 277 277 276
267 270 272 275 279 282 285 287 289 291 293 294 295 296 295 294 293 292 291 290 290 289 289 287 285 283 282 281 281 280 279 278 277 276 276 277 277 277
268 271 273 276 278 280 282 284 286 287 289 291 291 292 292 292 291 290 289 288 287 286 285 284 283 281 280 279 279 278 278 277 276 275 275 275 275 275
270 272 275 276 277 280 282 283 284 284 285 286 287 288 288 288 288 287 287 286 285 284 283 281 280 279 279 278 278 277 276 276 276 275 275 274 273 273
271 273 275 277 279 281 282 283 283 283 283 283 284 285 285 285 285 284 283 283 283 282 281 280 279 278 278 278 277 277 276 276 276 275 274 274 273 273
273 274 276 278 280 282 283 284 284 283 283 283 283 284 284 284 283 282 281 281 281 281 280 278 277 277 276 275 275 275 275 275 275 274 274 273 272 272
276 277 279 281 282 283 284 284 284 283 282 283 283 283 283 282 282 281 281 281 280 279 279 279 278 276 275 275 274 274 273 272 273 274 273 272 272 271
278 280 282 284 285 285 285 286 286 285 285 284 283 283 283 282 281 280 281 280 280 279 278 278 277 276 275 274 273 273 273 273 272 272 272 272 272 271
281 283 285 286 288 288 287 287 286 286 286 286 285 284 284 284 282 281 281 280 280 280 279 278 277 276 275 274 274 273 272 272 273 273 272 272 271 270
284 285 286 287 288 288 289 289 288 287 286 286 287 286 285 285 284 284 282 281 279 278 278 278 277 276 275 275 274 273 272 272 273 273 272 271 271 270
285 286 286 288 289 289 290 290 288 287 286 286 286 286 285 285 285 285 283 281 280 278 278 277 277 277 276 275 274 273 273 272 273 272 272 271 271 270
286 286 287 288 290 290 290 290 289 287 286 287 286 285 285 285 285 284 282 281 280 279 279 278 278 277 277 275 273 273 272 271 272 272 272 271 270 270
288 289 290 290 290 290 290 290 289 288 287 286 286 285 285 284 283 283 281 280 280 280 279 279 278 278 277 276 274 272 272 273 272 272 272 271 271 270
289 290 291 291 291 290 290 290 289 289 287 287 286 286 286 284 284 283 281 281 280 278 278 277 277 276 276 275 275 274 273 273 273 273 272 271 270 270
290 291 292 292 292 292 292 291 290 289 288 287 286 286 286 285 284 282 281 280 279 277 277 277 276 276 276 276 276 276 275 275 273 273 273 272 270 270
291 291 292 292 293 293 292 291 290 289 289 288 287 287 287 286 285 284 282 280 279 278 277 277 277 277 277 277 277 277 276 275 274 273 272 271 271 270
291 292 292 293 293 293 293 292 291 290 289 289 288 287 286 286 285 284 282 280 279 278 277 276 275 275 275 277 277 277 276 275 274 273 272 271 270 270
293 294 294 294 293 293 293 292 292 291 290 289 288 287 286 286 285 284 283 282 280 279 278 276 275 275 274 274 275 275 275 274 273 273 272 272 271 271
295 294 294 293 292 292 292 291 291 290 289 288 287 286 286 285 285 285 284 283 282 280 278 277 276 275 274 274 273 273 273 274 273 273 273 273 273 273
295 295 294 293 292 292 291 290 290 290 289 288 287 287 286 285 285 285 285 285 284 282 280 278 277 276 276 276 275 273 273 274 274 275 276 275 274 274
296 295 294 293 292 292 291 291 291 290 290 289 289 289 289 289 289 289 288 287 285 282 280 279 278 277 276 277 276 275 275 275 276 277 278 277 276 276
296 296 295 294 294 294 294 294 294 293 292 292 292 291 291 291 291 290 289 288 287 285 283 281 280 279 278 278 278 277 276 277 277 277 278 278 279 279
Height
5879 5879 5879 5879 5880 5879 5879 5879 5879 5879 5879 5878 5878 5877 5876 5876 5875 5875 5874 5873 5873 5872 5871 5871 5870 5869 5869 5868 5868 5868 5867 5867 5867 5867 5867 5867 5867 5867
5875 5876 5876 5877 5877 5877 5876 5876 5875 5875 5875 5874 5874 5873 5872 5872 5871 5870 5870 5869 5869 5868 5867 5866 5866 5865 5865 5864 5863 5863 5862 5862 5862 5862 5862 5862 5861 5861
5872 5872 5872 5873 5873 5873 5872 5872 5871 5871 5870 5870 5869 5868 5868 5867 5866 5866 5865 5864 5863 5863 5862 5861 5860 5860 5859 5859 5858 5858 5857 5857 5856 5856 5856 5856 5855 5855
5868 5868 5868 5868 5868 5868 5868 5867 5866 5866 5865 5864 5863 5862 5862 5861 5860 5859 5859 5858 5857 5856 5856 5855 5854 5853 5853 5852 5852 5851 5851 5850 5850 5849 5849 5849 5849 5849
5863 5863 5863 5863 5863 5862 5862 5861 5860 5860 5859 5858 5857 5856 5855 5854 5853 5852 5851 5851 5850 5849 5848 5847 5846 5846 5845 5845 5844 5844 5843 5843 5842 5842 5841 5841 5841 5841
5857 5857 5857 5857 5856 5856 5855 5854 5853 5852 5851 5851 5850 5849 5848 5846 5845 5844 5843 5842 5841 5840 5839 5839 5838 5837 5837 5836 5835 5835 5834 5834 5834 5833 5833 5832 5832 5832
5851 5850 5850 5850 5849 5848 5847 5846 5845 5844 5843 5842 5841 5840 5839 5838 5836 5835 5834 5833 5832 5831 5830 5829 5829 5828 5827 5827 5826 5825 5825 5824 5824 5823 5823 5823 5823 5823
5844 5843 5843 5843 5842 5840 5839 5837 5836 5835 5834 5833 5832 5830 5829 5827 5826 5825 5824 5823 5822 5821 5819 5819 5818 5818 5817 5816 5815 5815 5814 5813 5813 5812 5812 5812 5812 5812
5836 5836 5835 5834 5833 5831 5830 5828 5827 5825 5824 5822 5821 5820 5818 5816 5815 5814 5812 5811 5811 5810 5808 5807 5806 5806 5805 5804 5804 5803 5802 5801 5801 5801 5800 5800 5800 5800
5828 5827 5826 5825 5824 5822 5820 5819 5817 5815 5813 5811 5810 5808 5806 5804 5803 5801 5800 5799 5798 5797 5795 5795 5794 5793 5792 5791 5791 5790 5789 5788 5788 5788 5787 5787 5787 5787
5820 5818 5817 5816 5814 5812 5810 5809 5807 5804 5802 5800 5798 5796 5794 5792 5790 5788 5787 5786 5785 5784 5781 5780 5780 5779 5779 5778 5777 5775 5775 5775 5774 5773 5773 5773 5773 5773
5811 5809 5807 5806 5804 5801 5799 5797 5795 5793 5790 5788 5786 5784 5781 5779 5777 5774 5773 5771 5770 5769 5767 5765 5765 5764 5764 5764 5762 5761 5760 5759 5759 5759 5758 5758 5757 5757
5800 5799 5796 5794 5792 5790 5787 5785 5782 5780 5777 5775 5773 5770 5768 5765 5763 5761 5758 5756 5754 5754 5752 5750 5749 5748 5747 5748 5747 5745 5743 5743 5743 5743 5742 5742 5741 5741
5789 5787 5785 5783 5780 5777 5775 5772 5769 5766 5763 5761 5758 5756 5753 5751 5748 5746 5744 5741 5739 5738 5736 5734 5733 5731 5730 5730 5730 5729 5727 5726 5726 5726 5726 5725 5725 5724
5778 5775 5773 5770 5768 5765 5762 5758 5755 5752 5749 5746 5743 5740 5738 5735 5732 5730 5728 5725 5723 5721 5719 5717 5716 5715 5714 5713 5713 5712 5711 5710 5709 5709 5708 5708 5708 5708
5766 5764 5761 5758 5754 5751 5748 5745 5741 5738 5734 5732 5728 5725 5722 5719 5716 5713 5710 5708 5706 5704 5702 5700 5699 5698 5697 5696 5695 5695 5694 5693 5693 5691 5691 5691 5690 5690
5755 5751 5748 5745 5741 5737 5734 5730 5727 5723 5720 5716 5712 5709 5705 5702 5699 5695 5693 5690 5688 5687 5685 5683 5682 5681 5679 5678 5678 5677 5676 5676 5675 5674 5673 5674 5674 5673
5742 5738 5734 5731 5727 5723 5718 5715 5711 5707 5703 5700 5696 5692 5689 5685 5682 5678 5675 5673 5671 5669 5668 5666 5665 5664 5663 5662 5660 5659 5659 5658 5658 5657 5656 5656 5657 5656
5728 5724 5720 5716 5711 5707 5703 5699 5694 5690 5686 5682 5679 5675 5672 5668 5665 5662 5659 5656 5654 5652 5650 5649 5647 5646 5646 5646 5645 5642 5641 5641 5640 5640 5639 5639 5640 5640
5714 5710 5705 5701 5696 5692 5687 5683 5678 5674 5670 5666 5662 5658 5655 5652 5649 5646 5642 5639 5637 5635 5633 5631 5630 5628 5628 5629 5629 5628 5625 5624 5624 5623 5623 5622 5623 5622
5699 5695 5690 5685 5681 5676 5671 5667 5663 5658 5654 5650 5646 5643 5640 5636 5633 5630 5627 5623 5621 5618 5617 5615 5613 5612 5611 5611 5612 5612 5610 5608 5607 5607 5607 5607 5607 5606
5684 5679 5675 5670 5665 5661 5656 5651 5647 5643 5639 5635 5631 5628 5624 5621 5618 5615 5611 5608 5605 5603 5601 5600 5598 5597 5597 5596 5596 5596 5596 5595 5593 5592 5591 5591 5590 5591
5670 5665 5660 5655 5651 5646 5642 5637 5633 5629 5625 5621 5618 5614 5611 5608 5604 5601 5598 5595 5592 5589 5587 5586 5585 5584 5583 5583 5582 5582 5582 5581 5580 5580 5579 5577 5576 5576